Wetterdaten: Dienstag, 12.06.2012
Datum Zeit Temp. a Sch. Temp. a Son. Temp. a Bod. Feuchte a. Luftdruck Regen Wind Richtung Richtung Sonnenschein Helligkeit Taupunkt Windchill
12.06.2012 00:00 10,9 C 11,5 C 10,4 C 73 % 1003 hPa 0,0 l/m 0,0 m/s (0 Bft) W-NW 285 0 min 0 lux 6,3 C 10,9 C
12.06.2012 00:05 10,9 C 11,5 C 10,4 C 73 % 1003 hPa 0,0 l/m 0,0 m/s (0 Bft) W-NW 285 0 min 0 lux 6,3 C 10,9 C
12.06.2012 00:09 10,8 C 11,4 C 10,4 C 73 % 1003 hPa 0,0 l/m 0,0 m/s (0 Bft) W-NW 285 0 min 0 lux 6,2 C 10,8 C
12.06.2012 00:14 10,8 C 11,4 C 10,4 C 73 % 1003 hPa 0,0 l/m 0,0 m/s (0 Bft) W-NW 285 0 min 0 lux 6,2 C 10,8 C
12.06.2012 00:19 10,7 C 11,4 C 10,4 C 74 % 1003 hPa 0,0 l/m 0,0 m/s (0 Bft) W-NW22.5 295 0 min 0 lux 6,3 C 10,7 C
12.06.2012 00:24 10,6 C 11,4 C 10,4 C 74 % 1003 hPa 0,0 l/m 0,0 m/s (0 Bft) W-NW 290 0 min 0 lux 6,2 C 10,6 C
12.06.2012 00:29 10,6 C 11,4 C 10,4 C 74 % 1003 hPa 0,0 l/m 0,0 m/s (0 Bft) W-NW 290 0 min 0 lux 6,2 C 10,6 C
12.06.2012 00:34 10,7 C 11,4 C 10,4 C 74 % 1003 hPa 0,0 l/m 0,0 m/s (0 Bft) W-NW 285 0 min 0 lux 6,3 C 10,7 C
12.06.2012 00:39 10,7 C 11,4 C 10,4 C 74 % 1003 hPa 0,0 l/m 0,0 m/s (0 Bft) W-NW 285 0 min 0 lux 6,3 C 10,7 C
12.06.2012 00:44 10,8 C 11,3 C 10,4 C 74 % 1003 hPa 0,0 l/m 0,0 m/s (0 Bft) W-NW 285 0 min 0 lux 6,4 C 10,8 C
12.06.2012 00:50 10,7 C 11,4 C 10,4 C 75 % 1003 hPa 0,0 l/m 0,0 m/s (0 Bft) W-NW 285 0 min 0 lux 6,5 C 10,7 C
12.06.2012 00:55 10,8 C 11,4 C 10,4 C 75 % 1003 hPa 0,0 l/m 0,0 m/s (0 Bft) W-NW 285 0 min 0 lux 6,5 C 10,8 C
12.06.2012 01:00 10,8 C 11,4 C 10,4 C 75 % 1003 hPa 0,0 l/m 0,0 m/s (0 Bft) W-NW 285 0 min 0 lux 6,5 C 10,8 C
12.06.2012 01:05 10,8 C 11,4 C 10,4 C 75 % 1003 hPa 0,0 l/m 0,0 m/s (0 Bft) W-NW 285 0 min 0 lux 6,5 C 10,8 C
12.06.2012 01:10 10,8 C 11,3 C 10,4 C 75 % 1003 hPa 0,0 l/m 0,0 m/s (0 Bft) W-NW 285 0 min 0 lux 6,5 C 10,8 C
12.06.2012 01:15 10,7 C 11,3 C 10,4 C 75 % 1003 hPa 0,0 l/m 0,0 m/s (0 Bft) W-NW22.5 290 0 min 0 lux 6,5 C 10,7 C
12.06.2012 01:19 10,7 C 11,2 C 10,4 C 76 % 1003 hPa 0,0 l/m 0,0 m/s (0 Bft) W-NW 290 0 min 0 lux 6,6 C 10,7 C
12.06.2012 01:24 10,6 C 11,3 C 10,4 C 76 % 1003 hPa 0,0 l/m 0,0 m/s (0 Bft) W-NW 290 0 min 0 lux 6,5 C 10,6 C
12.06.2012 01:30 10,6 C 11,1 C 10,4 C 76 % 1003 hPa 0,0 l/m 0,0 m/s (0 Bft) W-NW 290 0 min 0 lux 6,5 C 10,6 C
12.06.2012 01:35 10,6 C 11,1 C 10,4 C 76 % 1003 hPa 0,0 l/m 0,0 m/s (0 Bft) W-NW 290 0 min 0 lux 6,5 C 10,6 C
12.06.2012 01:40 10,6 C 11,1 C 10,4 C 76 % 1003 hPa 0,0 l/m 0,0 m/s (0 Bft) W-NW 285 0 min 0 lux 6,5 C 10,6 C
12.06.2012 01:45 10,6 C 11,2 C 10,4 C 76 % 1003 hPa 0,0 l/m 0,0 m/s (0 Bft) W-NW 285 0 min 0 lux 6,5 C 10,6 C
12.06.2012 01:50 10,7 C 11,3 C 10,4 C 76 % 1003 hPa 0,0 l/m 0,0 m/s (0 Bft) W-NW 285 0 min 0 lux 6,6 C 10,7 C
12.06.2012 01:54 10,7 C 11,3 C 10,4 C 76 % 1003 hPa 0,0 l/m 0,0 m/s (0 Bft) W-NW 285 0 min 0 lux 6,6 C 10,7 C
12.06.2012 02:00 10,7 C 11,3 C 10,4 C 76 % 1003 hPa 0,0 l/m 0,0 m/s (0 Bft) W-NW 285 0 min 0 lux 6,6 C 10,7 C
12.06.2012 02:05 10,7 C 11,3 C 10,4 C 76 % 1003 hPa 0,0 l/m 0,0 m/s (0 Bft) W-NW 285 0 min 0 lux 6,6 C 10,7 C
12.06.2012 02:10 10,7 C 11,3 C 10,4 C 76 % 1003 hPa 0,0 l/m 0,0 m/s (0 Bft) W-NW 290 0 min 0 lux 6,6 C 10,7 C
12.06.2012 02:15 10,8 C 11,3 C 10,4 C 77 % 1003 hPa 0,0 l/m 0,0 m/s (0 Bft) W-NW 290 0 min 0 lux 6,9 C 10,8 C
12.06.2012 02:20 10,8 C 11,3 C 10,4 C 77 % 1003 hPa 0,0 l/m 0,0 m/s (0 Bft) W-NW 290 0 min 0 lux 6,9 C 10,8 C
12.06.2012 02:25 10,8 C 11,2 C 10,4 C 76 % 1003 hPa 0,0 l/m 0,0 m/s (0 Bft) W-NW22.5 295 0 min 0 lux 6,7 C 10,8 C
12.06.2012 02:30 10,7 C 11,2 C 10,4 C 76 % 1003 hPa 0,0 l/m 0,0 m/s (0 Bft) W-NW 290 0 min 0 lux 6,6 C 10,7 C
12.06.2012 02:35 10,7 C 11,2 C 10,4 C 76 % 1003 hPa 0,0 l/m 0,0 m/s (0 Bft) W-NW 295 0 min 0 lux 6,6 C 10,7 C
12.06.2012 02:40 10,7 C 11,2 C 10,4 C 76 % 1003 hPa 0,0 l/m 0,0 m/s (0 Bft) W-NW 290 0 min 0 lux 6,6 C 10,7 C
12.06.2012 02:45 10,7 C 11,2 C 10,4 C 76 % 1003 hPa 0,0 l/m 0,0 m/s (0 Bft) W-NW 290 0 min 0 lux 6,6 C 10,7 C
12.06.2012 02:50 10,7 C 11,2 C 10,4 C 76 % 1003 hPa 0,0 l/m 0,0 m/s (0 Bft) W-NW 290 0 min 0 lux 6,6 C 10,7 C
12.06.2012 02:55 10,7 C 11,2 C 10,4 C 76 % 1003 hPa 0,0 l/m 0,0 m/s (0 Bft) W-NW 290 0 min 0 lux 6,6 C 10,7 C
12.06.2012 03:00 10,7 C 11,2 C 10,4 C 76 % 1003 hPa 0,0 l/m 0,0 m/s (0 Bft) W-NW 290 0 min 0 lux 6,6 C 10,7 C
12.06.2012 03:05 10,7 C 11,2 C 10,4 C 76 % 1003 hPa 0,0 l/m 0,0 m/s (0 Bft) W-NW 290 0 min 0 lux 6,6 C 10,7 C
12.06.2012 03:10 10,8 C 11,2 C 10,4 C 77 % 1003 hPa 0,0 l/m 0,0 m/s (0 Bft) W-NW 290 0 min 0 lux 6,9 C 10,8 C
12.06.2012 03:15 10,8 C 11,2 C 10,4 C 77 % 1003 hPa 0,0 l/m 0,0 m/s (0 Bft) W-NW 290 0 min 0 lux 6,9 C 10,8 C
12.06.2012 03:20 10,8 C 11,2 C 10,4 C 77 % 1003 hPa 0,0 l/m 0,0 m/s (0 Bft) W-NW 290 0 min 0 lux 6,9 C 10,8 C
12.06.2012 03:25 10,7 C 11,2 C 10,4 C 77 % 1003 hPa 0,0 l/m 0,0 m/s (0 Bft) W-NW 290 0 min 0 lux 6,8 C 10,7 C
12.06.2012 03:30 10,7 C 11,2 C 10,4 C 77 % 1003 hPa 0,0 l/m 0,0 m/s (0 Bft) W-NW 290 0 min 0 lux 6,8 C 10,7 C
12.06.2012 03:35 10,7 C 11,2 C 10,4 C 77 % 1003 hPa 0,0 l/m 0,0 m/s (0 Bft) W-NW 290 0 min 0 lux 6,8 C 10,7 C
12.06.2012 03:40 10,8 C 11,3 C 10,4 C 77 % 1003 hPa 0,0 l/m 0,0 m/s (0 Bft) W-NW 290 0 min 0 lux 6,9 C 10,8 C
12.06.2012 03:45 10,9 C 11,3 C 10,4 C 77 % 1003 hPa 0,0 l/m 0,0 m/s (0 Bft) W-NW 290 0 min 0 lux 7,0 C 10,9 C
12.06.2012 03:50 10,9 C 11,3 C 10,4 C 77 % 1003 hPa 0,0 l/m 0,0 m/s (0 Bft) W-NW 290 0 min 0 lux 7,0 C 10,9 C
12.06.2012 03:55 11,0 C 11,4 C 10,4 C 76 % 1003 hPa 0,0 l/m 0,0 m/s (0 Bft) W-NW 290 0 min 0 lux 6,9 C 11,0 C
12.06.2012 04:00 10,9 C 11,4 C 10,4 C 77 % 1003 hPa 0,0 l/m 0,0 m/s (0 Bft) W-NW 290 0 min 0 lux 7,0 C 10,9 C
12.06.2012 04:05 10,9 C 11,4 C 10,4 C 77 % 1003 hPa 0,0 l/m 0,0 m/s (0 Bft) W-NW 290 0 min 0 lux 7,0 C 10,9 C
12.06.2012 04:10 10,9 C 11,4 C 10,4 C 77 % 1003 hPa 0,0 l/m 0,0 m/s (0 Bft) W-NW 290 0 min 0 lux 7,0 C 10,9 C
12.06.2012 04:14 11,0 C 11,4 C 10,4 C 76 % 1003 hPa 0,0 l/m 0,0 m/s (0 Bft) W-NW 290 0 min 0 lux 6,9 C 11,0 C
12.06.2012 04:19 11,0 C 11,4 C 10,4 C 76 % 1003 hPa 0,0 l/m 0,0 m/s (0 Bft) W-NW 290 0 min 0 lux 6,9 C 11,0 C
12.06.2012 04:24 10,9 C 11,4 C 10,4 C 77 % 1003 hPa 0,0 l/m 0,0 m/s (0 Bft) W-NW 290 0 min 0 lux 7,0 C 10,9 C
12.06.2012 04:29 10,9 C 11,4 C 10,4 C 77 % 1003 hPa 0,0 l/m 0,0 m/s (0 Bft) W-NW 285 0 min 0 lux 7,0 C 10,9 C
12.06.2012 04:34 10,9 C 11,3 C 10,4 C 77 % 1003 hPa 0,0 l/m 0,0 m/s (0 Bft) W-NW 285 0 min 0 lux 7,0 C 10,9 C
12.06.2012 04:39 10,8 C 11,3 C 10,4 C 77 % 1003 hPa 0,0 l/m 0,0 m/s (0 Bft) W-NW 285 0 min 0 lux 6,9 C 10,8 C
12.06.2012 04:44 10,8 C 11,3 C 10,4 C 77 % 1003 hPa 0,0 l/m 0,0 m/s (0 Bft) W-NW 285 0 min 0 lux 6,9 C 10,8 C
12.06.2012 04:49 10,8 C 11,3 C 10,4 C 77 % 1003 hPa 0,0 l/m 0,0 m/s (0 Bft) W-NW 285 0 min 0 lux 6,9 C 10,8 C
12.06.2012 04:54 10,7 C 11,3 C 10,4 C 77 % 1003 hPa 0,0 l/m 0,0 m/s (0 Bft) W-NW 285 0 min 36 lux 6,8 C 10,7 C
12.06.2012 04:59 10,8 C 11,3 C 10,4 C 77 % 1003 hPa 0,0 l/m 0,0 m/s (0 Bft) W-NW 285 0 min 57 lux 6,9 C 10,8 C
12.06.2012 05:04 10,7 C 11,3 C 10,4 C 77 % 1003 hPa 0,0 l/m 0,0 m/s (0 Bft) W-NW 285 0 min 91 lux 6,8 C 10,7 C
12.06.2012 05:09 10,7 C 11,3 C 10,4 C 77 % 1003 hPa 0,0 l/m 0,0 m/s (0 Bft) W-NW 285 0 min 126 lux 6,8 C 10,7 C
12.06.2012 05:14 10,7 C 11,2 C 10,4 C 77 % 1003 hPa 0,0 l/m 0,0 m/s (0 Bft) W-NW 285 0 min 200 lux 6,8 C 10,7 C
12.06.2012 05:19 10,7 C 11,3 C 10,4 C 77 % 1003 hPa 0,0 l/m 0,0 m/s (0 Bft) W-NW 285 0 min 309 lux 6,8 C 10,7 C
12.06.2012 05:24 10,8 C 11,2 C 10,4 C 77 % 1003 hPa 0,0 l/m 0,0 m/s (0 Bft) W-NW 285 0 min 366 lux 6,9 C 10,8 C
12.06.2012 05:29 10,8 C 11,3 C 10,4 C 77 % 1003 hPa 0,0 l/m 0,0 m/s (0 Bft) W-NW 285 0 min 518 lux 6,9 C 10,8 C
12.06.2012 05:34 10,9 C 11,3 C 10,4 C 78 % 1003 hPa 0,0 l/m 0,0 m/s (0 Bft) W-NW 285 0 min 685 lux 7,2 C 10,9 C
12.06.2012 05:39 10,9 C 11,3 C 10,4 C 78 % 1003 hPa 0,0 l/m 0,0 m/s (0 Bft) W-NW 285 0 min 879 lux 7,2 C 10,9 C
12.06.2012 05:45 10,9 C 11,4 C 10,4 C 78 % 1003 hPa 0,0 l/m 0,0 m/s (0 Bft) W-NW 285 0 min 1,06 klux 7,2 C 10,9 C
12.06.2012 05:50 11,0 C 11,4 C 10,4 C 77 % 1003 hPa 0,0 l/m 0,0 m/s (0 Bft) W-NW 285 0 min 1,52 klux 7,1 C 11,0 C
12.06.2012 05:55 11,1 C 11,4 C 10,4 C 77 % 1003 hPa 0,0 l/m 0,0 m/s (0 Bft) W-NW 285 0 min 1,95 klux 7,2 C 11,1 C
12.06.2012 06:00 11,1 C 11,4 C 10,4 C 77 % 1003 hPa 0,0 l/m 0,0 m/s (0 Bft) W-NW 285 0 min 1,94 klux 7,2 C 11,1 C
12.06.2012 06:05 11,2 C 11,4 C 10,4 C 77 % 1003 hPa 0,0 l/m 0,0 m/s (0 Bft) W-NW 285 0 min 1,83 klux 7,3 C 11,2 C
12.06.2012 06:10 11,2 C 11,4 C 10,4 C 77 % 1003 hPa 0,0 l/m 0,0 m/s (0 Bft) W-NW 285 0 min 1,84 klux 7,3 C 11,2 C
12.06.2012 06:15 11,2 C 11,5 C 10,4 C 78 % 1003 hPa 0,0 l/m 0,0 m/s (0 Bft) W-NW 285 0 min 2,32 klux 7,5 C 11,2 C
12.06.2012 06:20 11,3 C 11,5 C 10,4 C 78 % 1003 hPa 0,0 l/m 0,0 m/s (0 Bft) W-NW 285 0 min 2,66 klux 7,6 C 11,3 C
12.06.2012 06:25 11,4 C 11,5 C 10,4 C 77 % 1003 hPa 0,0 l/m 0,0 m/s (0 Bft) W-NW 285 0 min 2,83 klux 7,5 C 11,4 C
12.06.2012 06:30 11,5 C 11,6 C 10,4 C 78 % 1003 hPa 0,0 l/m 0,0 m/s (0 Bft) W-NW 285 0 min 3,76 klux 7,8 C 11,5 C
12.06.2012 06:35 11,6 C 11,6 C 10,4 C 78 % 1003 hPa 0,0 l/m 0,0 m/s (0 Bft) W-NW 285 0 min 4,15 klux 7,9 C 11,6 C
12.06.2012 06:40 11,8 C 11,7 C 10,4 C 78 % 1003 hPa 0,0 l/m 0,0 m/s (0 Bft) W-NW 285 0 min 5,15 klux 8,1 C 11,8 C
12.06.2012 06:45 11,9 C 11,7 C 10,4 C 78 % 1003 hPa 0,0 l/m 0,0 m/s (0 Bft) W-NW 285 0 min 5,82 klux 8,2 C 11,9 C
12.06.2012 06:50 12,0 C 11,9 C 10,4 C 77 % 1003 hPa 0,0 l/m 0,0 m/s (0 Bft) W-NW 285 0 min 6,84 klux 8,1 C 12,0 C
12.06.2012 06:55 12,1 C 12,0 C 10,4 C 77 % 1003 hPa 0,0 l/m 0,0 m/s (0 Bft) W-NW 285 0 min 6,84 klux 8,2 C 12,1 C
12.06.2012 07:00 12,4 C 12,0 C 10,4 C 77 % 1003 hPa 0,0 l/m 0,0 m/s (0 Bft) W-NW 285 0 min 9,5 klux 8,5 C 12,4 C
12.06.2012 07:05 12,6 C 12,1 C 10,4 C 77 % 1003 hPa 0,0 l/m 0,0 m/s (0 Bft) W-NW 290 0 min 9,6 klux 8,7 C 12,6 C
12.06.2012 07:10 12,7 C 12,2 C 10,4 C 77 % 1003 hPa 0,0 l/m 0,0 m/s (0 Bft) W-SW45 255 0 min 7,04 klux 8,8 C 12,7 C
12.06.2012 07:15 12,8 C 12,2 C 10,4 C 77 % 1003 hPa 0,0 l/m 0,0 m/s (0 Bft) SW 235 0 min 9,1 klux 8,9 C 12,8 C
12.06.2012 07:20 12,9 C 12,3 C 10,4 C 77 % 1003 hPa 0,0 l/m 0,0 m/s (0 Bft) SW22.5 225 0 min 11,6 klux 9,0 C 12,9 C
12.06.2012 07:25 13,2 C 12,4 C 10,4 C 77 % 1003 hPa 0,0 l/m 0,0 m/s (0 Bft) S-SW 200 0 min 11,6 klux 9,3 C 13,2 C
12.06.2012 07:30 13,3 C 12,6 C 10,4 C 76 % 1003 hPa 0,0 l/m 0,0 m/s (0 Bft) S-SW 195 0 min 10,8 klux 9,2 C 13,3 C
12.06.2012 07:35 13,5 C 12,8 C 10,4 C 76 % 1003 hPa 0,0 l/m 0,0 m/s (0 Bft) S-SW 195 0 min 10,3 klux 9,4 C 13,5 C
12.06.2012 07:40 13,7 C 12,9 C 10,4 C 77 % 1003 hPa 0,0 l/m 0,0 m/s (0 Bft) S-SW 195 0 min 13,4 klux 9,7 C 13,7 C
12.06.2012 07:45 13,9 C 13,1 C 10,4 C 77 % 1003 hPa 0,0 l/m 0,0 m/s (0 Bft) S-SW 195 0 min 12,1 klux 9,9 C 13,9 C
12.06.2012 07:50 14,1 C 13,2 C 10,4 C 76 % 1003 hPa 0,0 l/m 0,0 m/s (0 Bft) S-SW 195 0 min 14,3 klux 9,9 C 14,1 C
12.06.2012 07:55 14,1 C 13,3 C 10,4 C 76 % 1003 hPa 0,0 l/m 0,1 m/s (0 Bft) S-SW 195 0 min 13,5 klux 9,9 C 14,1 C
12.06.2012 08:00 14,2 C 13,4 C 10,4 C 76 % 1003 hPa 0,0 l/m 0,0 m/s (0 Bft) S-SW 195 0 min 10,9 klux 10,0 C 14,2 C
12.06.2012 08:05 14,1 C 13,5 C 10,4 C 75 % 1003 hPa 0,0 l/m 0,0 m/s (0 Bft) S-SW 195 0 min 10,1 klux 9,7 C 14,1 C
12.06.2012 08:10 14,1 C 13,5 C 10,4 C 75 % 1003 hPa 0,0 l/m 0,0 m/s (0 Bft) S-SW 195 0 min 13,0 klux 9,7 C 14,1 C
12.06.2012 08:15 14,2 C 13,6 C 10,4 C 75 % 1003 hPa 0,0 l/m 0,0 m/s (0 Bft) S-SW 195 0 min 17,3 klux 9,8 C 14,2 C
12.06.2012 08:20 14,5 C 13,7 C 10,4 C 76 % 1003 hPa 0,0 l/m 0,0 m/s (0 Bft) S-SW 195 0 min 20,8 klux 10,3 C 14,5 C
12.06.2012 08:25 14,9 C 13,8 C 10,4 C 76 % 1003 hPa 0,0 l/m 0,0 m/s (0 Bft) S-SW 200 0 min 19,8 klux 10,7 C 14,9 C
12.06.2012 08:30 15,0 C 14,0 C 10,4 C 75 % 1003 hPa 0,0 l/m 0,0 m/s (0 Bft) S-SW 200 0 min 20,8 klux 10,6 C 15,0 C
12.06.2012 08:35 15,3 C 14,2 C 10,4 C 75 % 1003 hPa 0,0 l/m 0,2 m/s (0 Bft) S-SW 200 0 min 33,6 klux 10,9 C 15,3 C
12.06.2012 08:40 16,0 C 14,3 C 10,4 C 74 % 1003 hPa 0,0 l/m 0,0 m/s (0 Bft) S-SW 200 5 min 44,0 klux 11,4 C 16,0 C
12.06.2012 08:45 16,4 C 14,4 C 10,4 C 74 % 1003 hPa 0,0 l/m 0,0 m/s (0 Bft) S-SW 200 0 min 32,1 klux 11,8 C 16,4 C
12.06.2012 08:50 16,8 C 14,6 C 10,4 C 74 % 1003 hPa 0,0 l/m 0,1 m/s (0 Bft) S-SW 205 0 min 31,0 klux 12,1 C 16,8 C
12.06.2012 08:55 16,8 C 14,7 C 10,4 C 73 % 1003 hPa 0,0 l/m 0,0 m/s (0 Bft) S-SW 200 0 min 21,6 klux 11,9 C 16,8 C
12.06.2012 09:00 16,8 C 14,8 C 10,4 C 73 % 1003 hPa 0,0 l/m 1,3 m/s (1 Bft) S-SW 205 0 min 21,6 klux 11,9 C 16,8 C
12.06.2012 09:05 16,2 C 14,9 C 10,4 C 70 % 1003 hPa 0,0 l/m 0,0 m/s (0 Bft) SW22.5 220 0 min 26,5 klux 10,7 C 16,2 C
12.06.2012 09:10 16,3 C 15,0 C 10,4 C 72 % 1003 hPa 0,0 l/m 0,2 m/s (0 Bft) W-SW 250 0 min 35,8 klux 11,2 C 16,3 C
12.06.2012 09:15 16,8 C 15,1 C 10,4 C 73 % 1003 hPa 0,0 l/m 0,0 m/s (0 Bft) W-SW 250 0 min 42,2 klux 11,9 C 16,8 C
12.06.2012 09:20 17,4 C 15,3 C 10,4 C 71 % 1003 hPa 0,0 l/m 0,0 m/s (0 Bft) SW22.5 220 5 min 56,4 klux 12,1 C 17,4 C
12.06.2012 09:25 18,1 C 15,5 C 10,4 C 69 % 1003 hPa 0,0 l/m 0,0 m/s (0 Bft) SW 215 5 min 51,3 klux 12,3 C 18,1 C
12.06.2012 09:30 17,9 C 15,6 C 10,4 C 68 % 1003 hPa 0,0 l/m 0,3 m/s (0 Bft) W-SW45 240 0 min 41,8 klux 11,9 C 17,9 C
12.06.2012 09:35 17,7 C 15,9 C 10,4 C 67 % 1003 hPa 0,0 l/m 1,6 m/s (1 Bft) SW22.5 230 5 min 51,6 klux 11,5 C 17,7 C
12.06.2012 09:40 18,7 C 16,1 C 10,4 C 68 % 1003 hPa 0,0 l/m 0,3 m/s (0 Bft) S-SW22.5 195 5 min 72,6 klux 12,7 C 18,7 C
12.06.2012 09:45 19,5 C 16,3 C 10,4 C 67 % 1003 hPa 0,0 l/m 0,1 m/s (0 Bft) S 180 5 min 61,6 klux 13,2 C 19,5 C
12.06.2012 09:50 19,9 C 16,5 C 10,4 C 66 % 1003 hPa 0,0 l/m 0,3 m/s (1 Bft) S67.5 185 5 min 74,3 klux 13,4 C 19,9 C
12.06.2012 09:55 20,9 C 17,0 C 10,4 C 65 % 1003 hPa 0,0 l/m 0,1 m/s (0 Bft) S-SO67.5 165 5 min 80,2 klux 14,1 C 20,9 C
12.06.2012 10:00 21,8 C 17,8 C 10,4 C 62 % 1003 hPa 0,0 l/m 1,6 m/s (2 Bft) S-SW67.5 195 5 min 83,4 klux 14,2 C 21,8 C
12.06.2012 10:05 21,8 C 18,4 C 10,4 C 60 % 1003 hPa 0,0 l/m 1,6 m/s (1 Bft) SW45 230 5 min 100 klux 13,7 C 21,8 C
12.06.2012 10:10 22,1 C 19,1 C 10,4 C 57 % 1003 hPa 0,0 l/m 2,7 m/s (2 Bft) SW67.5 220 0 min 44,8 klux 13,2 C 21,0 C
12.06.2012 10:15 20,5 C 19,0 C 10,4 C 58 % 1003 hPa 0,0 l/m 0,3 m/s (1 Bft) SW45 230 0 min 23,4 klux 11,9 C 20,5 C
12.06.2012 10:20 19,8 C 18,9 C 10,4 C 59 % 1003 hPa 0,0 l/m 0,1 m/s (0 Bft) SW45 215 0 min 19,4 klux 11,6 C 19,8 C
12.06.2012 10:25 18,8 C 18,6 C 10,4 C 60 % 1003 hPa 0,0 l/m 0,0 m/s (0 Bft) S-SW 205 0 min 19,9 klux 10,9 C 18,8 C
12.06.2012 10:30 18,1 C 18,1 C 10,4 C 60 % 1003 hPa 0,0 l/m 0,2 m/s (0 Bft) SW67.5 230 0 min 19,3 klux 10,2 C 18,1 C
12.06.2012 10:35 17,6 C 17,9 C 10,4 C 62 % 1003 hPa 0,0 l/m 0,1 m/s (0 Bft) W-NW45 285 0 min 19,3 klux 10,2 C 17,6 C
12.06.2012 10:39 17,5 C 17,6 C 10,4 C 62 % 1004 hPa 0,0 l/m 1,7 m/s (2 Bft) W45 270 0 min 19,7 klux 10,1 C 17,5 C
12.06.2012 10:45 17,3 C 17,4 C 10,4 C 63 % 1004 hPa 0,0 l/m 0,1 m/s (0 Bft) W45 265 0 min 20,5 klux 10,2 C 17,3 C
12.06.2012 10:50 17,3 C 17,3 C 10,4 C 64 % 1004 hPa 0,0 l/m 0,1 m/s (0 Bft) W45 280 0 min 21,7 klux 10,4 C 17,3 C
12.06.2012 10:55 17,2 C 17,2 C 10,4 C 64 % 1004 hPa 0,0 l/m 0,1 m/s (0 Bft) W45 270 0 min 24,0 klux 10,3 C 17,2 C
12.06.2012 11:00 17,7 C 17,2 C 10,4 C 64 % 1004 hPa 0,0 l/m 0,0 m/s (0 Bft) W-SW 255 0 min 29,0 klux 10,8 C 17,7 C
12.06.2012 11:05 18,1 C 17,2 C 10,4 C 63 % 1004 hPa 0,0 l/m 0,0 m/s (0 Bft) W 265 0 min 31,2 klux 10,9 C 18,1 C
12.06.2012 11:10 18,5 C 17,4 C 10,4 C 64 % 1004 hPa 0,0 l/m 1,1 m/s (1 Bft) W-SW22.5 255 0 min 32,0 klux 11,6 C 18,5 C
12.06.2012 11:14 18,7 C 17,6 C 10,4 C 63 % 1004 hPa 0,0 l/m 1,1 m/s (1 Bft) W-SW22.5 255 0 min 32,1 klux 11,5 C 18,7 C
12.06.2012 11:19 18,9 C 17,8 C 10,4 C 63 % 1004 hPa 0,0 l/m 0,0 m/s (0 Bft) W-SW45 255 0 min 37,7 klux 11,7 C 18,9 C
12.06.2012 11:25 19,0 C 18,1 C 10,4 C 60 % 1004 hPa 0,0 l/m 0,0 m/s (0 Bft) SW22.5 230 0 min 39,7 klux 11,1 C 19,0 C
12.06.2012 11:30 19,3 C 18,2 C 10,4 C 61 % 1004 hPa 0,0 l/m 0,0 m/s (0 Bft) SW22.5 230 5 min 68,5 klux 11,6 C 19,3 C
12.06.2012 11:35 21,3 C 19,4 C 10,4 C 61 % 1004 hPa 0,0 l/m 0,2 m/s (0 Bft) S-SW45 205 5 min 124 klux 13,5 C 21,3 C
12.06.2012 11:40 21,8 C 19,9 C 10,4 C 57 % 1004 hPa 0,0 l/m 0,2 m/s (0 Bft) S-SW45 205 0 min 58,8 klux 12,9 C 21,8 C
12.06.2012 11:45 21,6 C 20,1 C 10,4 C 55 % 1004 hPa 0,0 l/m 0,0 m/s (0 Bft) S-SO67.5 165 5 min 107 klux 12,2 C 21,6 C
12.06.2012 11:50 22,3 C 21,4 C 10,4 C 56 % 1003 hPa 0,0 l/m 0,3 m/s (1 Bft) W67.5 260 5 min 99 klux 13,1 C 22,3 C
12.06.2012 11:54 22,8 C 22,8 C 10,4 C 56 % 1003 hPa 0,0 l/m 0,1 m/s (0 Bft) SW45 225 0 min 51,2 klux 13,6 C 22,8 C
12.06.2012 12:00 22,3 C 21,8 C 10,4 C 53 % 1003 hPa 0,0 l/m 5,3 m/s (3 Bft) N-NW22.5 340 0 min 31,5 klux 12,2 C 19,3 C
12.06.2012 12:05 20,7 C 21,8 C 10,4 C 53 % 1003 hPa 0,0 l/m 3,2 m/s (2 Bft) W-NW45 300 5 min 107 klux 10,8 C 18,9 C
12.06.2012 12:10 21,6 C 22,7 C 10,4 C 55 % 1003 hPa 0,0 l/m 2,1 m/s (2 Bft) W45 265 5 min 103 klux 12,2 C 21,2 C
12.06.2012 12:15 21,8 C 23,6 C 10,4 C 50 % 1003 hPa 0,0 l/m 2,3 m/s (2 Bft) W-NW45 290 5 min 103 klux 10,9 C 21,1 C
12.06.2012 12:20 21,8 C 23,5 C 10,4 C 51 % 1003 hPa 0,0 l/m 0,7 m/s (1 Bft) W67.5 265 0 min 51,5 klux 11,2 C 21,8 C
12.06.2012 12:24 20,9 C 22,9 C 10,4 C 49 % 1003 hPa 0,0 l/m 3,9 m/s (3 Bft) N-NW45 335 0 min 36,7 klux 9,8 C 18,6 C
12.06.2012 12:29 20,5 C 22,5 C 10,4 C 49 % 1003 hPa 0,0 l/m 3,6 m/s (3 Bft) NW45 320 0 min 63,9 klux 9,4 C 18,3 C
12.06.2012 12:35 20,5 C 22,6 C 10,4 C 49 % 1003 hPa 0,0 l/m 0,5 m/s (1 Bft) W45 275 0 min 47,6 klux 9,4 C 20,5 C
12.06.2012 12:40 20,4 C 22,4 C 10,4 C 48 % 1003 hPa 0,0 l/m 3,1 m/s (2 Bft) W-NW67.5 295 5 min 79,3 klux 9,0 C 18,7 C
12.06.2012 12:45 21,0 C 23,1 C 10,4 C 49 % 1003 hPa 0,0 l/m 2,6 m/s (2 Bft) W45 280 5 min 105 klux 9,9 C 20,0 C
12.06.2012 12:50 22,5 C 24,0 C 10,4 C 49 % 1003 hPa 0,0 l/m 3,4 m/s (2 Bft) W-NW67.5 285 5 min 118 klux 11,2 C 20,9 C
12.06.2012 12:55 23,4 C 24,1 C 10,4 C 47 % 1003 hPa 0,0 l/m 3,2 m/s (2 Bft) W-NW67.5 285 0 min 45,3 klux 11,4 C 22,1 C
12.06.2012 13:00 22,1 C 23,3 C 10,4 C 42 % 1003 hPa 0,0 l/m 4,7 m/s (3 Bft) N-NW22.5 330 0 min 50,9 klux 8,6 C 19,5 C
12.06.2012 13:05 21,6 C 23,0 C 10,4 C 44 % 1003 hPa 0,0 l/m 4,3 m/s (3 Bft) NW45 325 0 min 52,5 klux 8,8 C 19,1 C
12.06.2012 13:10 21,3 C 22,9 C 10,4 C 44 % 1003 hPa 0,0 l/m 3,8 m/s (3 Bft) W-NW67.5 295 0 min 68,3 klux 8,5 C 19,1 C
12.06.2012 13:15 22,5 C 23,7 C 10,4 C 45 % 1003 hPa 0,0 l/m 2,9 m/s (2 Bft) W67.5 270 5 min 104 klux 10,0 C 21,2 C
12.06.2012 13:20 23,2 C 25,0 C 10,4 C 44 % 1003 hPa 0,0 l/m 2,1 m/s (2 Bft) W-SW67.5 250 0 min 67,7 klux 10,3 C 22,9 C
12.06.2012 13:25 22,8 C 24,3 C 10,4 C 42 % 1003 hPa 0,0 l/m 4,9 m/s (3 Bft) NW45 325 0 min 33,0 klux 9,2 C 20,2 C
12.06.2012 13:30 21,3 C 23,7 C 10,4 C 43 % 1003 hPa 0,0 l/m 3,6 m/s (3 Bft) W-NW67.5 295 0 min 28,7 klux 8,2 C 19,3 C
12.06.2012 13:35 20,5 C 23,0 C 10,4 C 44 % 1003 hPa 0,0 l/m 4,3 m/s (3 Bft) N-NW45 330 0 min 31,2 klux 7,8 C 17,7 C
12.06.2012 13:40 20,8 C 22,6 C 10,4 C 45 % 1003 hPa 0,0 l/m 2,9 m/s (2 Bft) W-NW45 285 0 min 36,9 klux 8,4 C 19,4 C
12.06.2012 13:45 21,1 C 22,5 C 10,4 C 46 % 1004 hPa 0,0 l/m 0,4 m/s (1 Bft) W-NW45 285 0 min 42,5 klux 9,0 C 21,1 C
12.06.2012 13:50 21,3 C 22,4 C 10,4 C 45 % 1003 hPa 0,0 l/m 4,2 m/s (3 Bft) NW45 315 0 min 48,1 klux 8,9 C 18,8 C
12.06.2012 13:55 21,3 C 22,4 C 10,4 C 45 % 1003 hPa 0,0 l/m 0,0 m/s (0 Bft) NW45 305 0 min 43,9 klux 8,9 C 21,3 C
12.06.2012 14:00 22,1 C 22,3 C 10,4 C 45 % 1003 hPa 0,0 l/m 0,2 m/s (0 Bft) W-NW45 295 0 min 44,4 klux 9,6 C 22,1 C
12.06.2012 14:05 22,3 C 22,3 C 10,4 C 45 % 1003 hPa 0,0 l/m 4,5 m/s (3 Bft) NW45 305 0 min 54,3 klux 9,8 C 19,8 C
12.06.2012 14:09 22,5 C 22,2 C 10,4 C 45 % 1003 hPa 0,0 l/m 3,4 m/s (3 Bft) NW45 320 0 min 61,8 klux 10,0 C 20,8 C
12.06.2012 14:14 23,1 C 23,0 C 10,4 C 45 % 1003 hPa 0,0 l/m 2,5 m/s (2 Bft) NW67.5 315 5 min 131 klux 10,5 C 22,3 C
12.06.2012 14:19 24,8 C 23,7 C 10,4 C 44 % 1003 hPa 0,0 l/m 0,4 m/s (1 Bft) NW45 310 5 min 119 klux 11,7 C 24,8 C
12.06.2012 14:24 24,0 C 24,0 C 10,4 C 40 % 1003 hPa 0,0 l/m 0,0 m/s (0 Bft) NW22.5 320 0 min 55,3 klux 9,6 C 24,0 C
12.06.2012 14:29 23,6 C 24,1 C 10,4 C 40 % 1003 hPa 0,0 l/m 2,6 m/s (2 Bft) W-NW45 295 0 min 45,2 klux 9,2 C 22,8 C
12.06.2012 14:34 22,7 C 23,8 C 10,4 C 41 % 1003 hPa 0,0 l/m 3,8 m/s (3 Bft) NW45 315 0 min 45,4 klux 8,8 C 20,8 C
12.06.2012 14:39 22,8 C 23,4 C 10,4 C 41 % 1003 hPa 0,0 l/m 4,6 m/s (3 Bft) NW45 310 0 min 46,3 klux 8,9 C 20,4 C
12.06.2012 14:44 22,5 C 23,4 C 10,4 C 40 % 1003 hPa 0,0 l/m 3,9 m/s (3 Bft) N-NW45 330 0 min 45,6 klux 8,2 C 20,5 C
12.06.2012 14:49 22,2 C 22,8 C 10,4 C 40 % 1003 hPa 0,0 l/m 3,3 m/s (2 Bft) NW45 325 0 min 48,9 klux 8,0 C 20,6 C
12.06.2012 14:54 22,0 C 22,9 C 10,4 C 40 % 1003 hPa 0,0 l/m 3,7 m/s (3 Bft) N-NW22.5 330 0 min 52,4 klux 7,8 C 20,0 C
12.06.2012 14:59 22,3 C 23,1 C 10,4 C 41 % 1003 hPa 0,0 l/m 3,0 m/s (2 Bft) W-NW45 295 0 min 57,2 klux 8,4 C 21,0 C
12.06.2012 15:04 22,9 C 23,3 C 10,4 C 42 % 1003 hPa 0,0 l/m 3,1 m/s (2 Bft) NW45 315 5 min 88,6 klux 9,3 C 21,5 C
12.06.2012 15:10 23,9 C 24,5 C 10,4 C 38 % 1003 hPa 0,0 l/m 0,5 m/s (1 Bft) NW45 305 0 min 53,7 klux 8,7 C 23,9 C
12.06.2012 15:15 23,7 C 25,3 C 10,4 C 35 % 1003 hPa 0,0 l/m 3,3 m/s (2 Bft) NW22.5 325 5 min 112 klux 7,3 C 22,3 C
12.06.2012 15:20 24,2 C 26,8 C 10,4 C 35 % 1003 hPa 0,0 l/m 4,1 m/s (3 Bft) W-NW67.5 295 5 min 97,2 klux 7,8 C 22,4 C
12.06.2012 15:25 23,9 C 27,5 C 10,4 C 35 % 1003 hPa 0,0 l/m 5,0 m/s (3 Bft) NW45 315 5 min 86,5 klux 7,5 C 21,5 C
12.06.2012 15:30 22,9 C 26,7 C 10,4 C 37 % 1003 hPa 0,0 l/m 4,2 m/s (3 Bft) NW67.5 315 0 min 30,7 klux 7,4 C 20,8 C
12.06.2012 15:35 22,6 C 25,7 C 10,4 C 38 % 1003 hPa 0,0 l/m 2,7 m/s (2 Bft) W-NW45 295 0 min 30,6 klux 7,6 C 21,6 C
12.06.2012 15:40 22,3 C 24,4 C 10,4 C 40 % 1003 hPa 0,0 l/m 5,4 m/s (3 Bft) N-NW45 330 0 min 43,3 klux 8,0 C 19,3 C
12.06.2012 15:45 22,4 C 24,6 C 10,4 C 40 % 1003 hPa 0,0 l/m 4,6 m/s (3 Bft) N-NW22.5 340 5 min 95,8 klux 8,1 C 19,8 C
12.06.2012 15:50 22,3 C 24,5 C 10,4 C 40 % 1003 hPa 0,0 l/m 4,8 m/s (3 Bft) N-NW45 335 0 min 44,6 klux 8,0 C 19,6 C
12.06.2012 15:55 22,2 C 24,4 C 10,4 C 41 % 1004 hPa 0,0 l/m 0,0 m/s (0 Bft) NW45 320 0 min 51,2 klux 8,3 C 22,2 C
12.06.2012 16:00 23,3 C 24,6 C 10,4 C 40 % 1004 hPa 0,0 l/m 0,2 m/s (0 Bft) W-NW45 300 0 min 51,9 klux 8,9 C 23,3 C
12.06.2012 16:05 23,2 C 24,1 C 10,4 C 41 % 1004 hPa 0,0 l/m 0,0 m/s (0 Bft) W22.5 275 0 min 31,7 klux 9,2 C 23,2 C
12.06.2012 16:10 22,8 C 23,7 C 10,4 C 42 % 1004 hPa 0,0 l/m 0,0 m/s (0 Bft) W22.5 270 0 min 40,6 klux 9,2 C 22,8 C
12.06.2012 16:15 22,4 C 23,8 C 10,4 C 41 % 1004 hPa 0,0 l/m 0,9 m/s (1 Bft) N-NW22.5 335 5 min 79,7 klux 8,5 C 22,4 C
12.06.2012 16:20 21,6 C 23,9 C 10,4 C 42 % 1004 hPa 0,0 l/m 4,2 m/s (3 Bft) NW67.5 325 0 min 22,4 klux 8,1 C 19,2 C
12.06.2012 16:25 21,5 C 23,6 C 10,4 C 42 % 1004 hPa 0,0 l/m 2,3 m/s (2 Bft) W-NW67.5 290 0 min 29,7 klux 8,0 C 20,8 C
12.06.2012 16:30 21,5 C 23,2 C 10,4 C 43 % 1004 hPa 0,0 l/m 5,1 m/s (3 Bft) NW45 320 0 min 28,1 klux 8,4 C 18,4 C
12.06.2012 16:35 21,2 C 23,2 C 10,4 C 44 % 1004 hPa 0,0 l/m 5,2 m/s (3 Bft) N-NW22.5 330 0 min 21,7 klux 8,5 C 18,0 C
12.06.2012 16:40 21,2 C 22,7 C 10,4 C 44 % 1004 hPa 0,0 l/m 4,1 m/s (3 Bft) N-NW22.5 330 0 min 32,0 klux 8,5 C 18,7 C
12.06.2012 16:45 21,6 C 22,7 C 10,4 C 44 % 1004 hPa 0,0 l/m 1,9 m/s (2 Bft) NW45 305 0 min 32,5 klux 8,8 C 21,4 C
12.06.2012 16:50 21,9 C 22,6 C 10,4 C 44 % 1004 hPa 0,0 l/m 0,0 m/s (0 Bft) W-SW 250 0 min 26,2 klux 9,1 C 21,9 C
12.06.2012 16:55 21,7 C 22,4 C 10,4 C 44 % 1004 hPa 0,0 l/m 0,0 m/s (0 Bft) W-NW45 295 0 min 27,9 klux 8,9 C 21,7 C
12.06.2012 17:00 21,8 C 22,2 C 10,4 C 44 % 1004 hPa 0,0 l/m 3,6 m/s (3 Bft) NW45 305 0 min 32,2 klux 9,0 C 19,9 C
12.06.2012 17:05 21,9 C 22,4 C 10,4 C 44 % 1004 hPa 0,0 l/m 4,1 m/s (3 Bft) NW45 325 0 min 44,1 klux 9,1 C 19,6 C
12.06.2012 17:10 21,6 C 22,5 C 10,4 C 43 % 1004 hPa 0,0 l/m 2,9 m/s (2 Bft) W-NW45 295 0 min 26,9 klux 8,5 C 20,3 C
12.06.2012 17:15 21,5 C 22,3 C 10,4 C 44 % 1004 hPa 0,0 l/m 4,0 m/s (3 Bft) NW45 325 0 min 27,8 klux 8,7 C 19,2 C
12.06.2012 17:20 21,6 C 22,4 C 10,4 C 44 % 1004 hPa 0,0 l/m 2,1 m/s (2 Bft) NW45 310 5 min 59,7 klux 8,8 C 21,2 C
12.06.2012 17:25 22,0 C 22,4 C 10,4 C 43 % 1004 hPa 0,0 l/m 3,1 m/s (2 Bft) W-NW67.5 295 0 min 43,4 klux 8,8 C 20,5 C
12.06.2012 17:30 22,0 C 22,8 C 10,4 C 43 % 1004 hPa 0,0 l/m 4,3 m/s (3 Bft) N-NW45 335 0 min 28,3 klux 8,8 C 19,6 C
12.06.2012 17:35 21,5 C 22,4 C 10,4 C 43 % 1004 hPa 0,0 l/m 4,0 m/s (3 Bft) NW22.5 325 0 min 22,9 klux 8,4 C 19,2 C
12.06.2012 17:40 21,3 C 22,3 C 10,4 C 43 % 1004 hPa 0,0 l/m 0,3 m/s (1 Bft) NW45 310 0 min 21,6 klux 8,2 C 21,3 C
12.06.2012 17:45 21,1 C 22,1 C 10,4 C 43 % 1004 hPa 0,0 l/m 5,6 m/s (4 Bft) N-NW45 330 0 min 39,9 klux 8,0 C 17,6 C
12.06.2012 17:50 21,7 C 22,3 C 10,4 C 45 % 1004 hPa 0,0 l/m 4,7 m/s (3 Bft) NW45 315 0 min 40,7 klux 9,2 C 18,9 C
12.06.2012 17:55 22,3 C 22,9 C 10,4 C 44 % 1004 hPa 0,0 l/m 2,4 m/s (2 Bft) NW45 315 5 min 45,2 klux 9,5 C 21,6 C
12.06.2012 18:00 22,9 C 23,2 C 10,4 C 44 % 1004 hPa 0,0 l/m 3,9 m/s (3 Bft) NW67.5 325 5 min 45,2 klux 10,0 C 21,0 C
12.06.2012 18:05 22,7 C 23,3 C 10,4 C 42 % 1004 hPa 0,0 l/m 5,7 m/s (4 Bft) N-NW22.5 335 5 min 40,4 klux 9,1 C 19,6 C
12.06.2012 18:10 22,1 C 23,0 C 10,4 C 43 % 1004 hPa 0,0 l/m 3,4 m/s (3 Bft) NW22.5 320 0 min 33,4 klux 8,9 C 20,4 C
12.06.2012 18:15 21,5 C 23,0 C 10,4 C 44 % 1004 hPa 0,0 l/m 4,7 m/s (3 Bft) NW45 315 0 min 33,4 klux 8,7 C 18,7 C
12.06.2012 18:20 21,5 C 22,6 C 10,4 C 44 % 1004 hPa 0,0 l/m 2,5 m/s (2 Bft) NW45 310 0 min 18,2 klux 8,7 C 20,6 C
12.06.2012 18:25 20,6 C 22,1 C 10,4 C 46 % 1004 hPa 0,0 l/m 2,3 m/s (2 Bft) NW45 320 0 min 16,1 klux 8,6 C 19,8 C
12.06.2012 18:30 20,5 C 22,0 C 10,4 C 46 % 1004 hPa 0,0 l/m 2,7 m/s (2 Bft) NW45 320 0 min 21,3 klux 8,5 C 19,3 C
12.06.2012 18:35 20,4 C 21,9 C 10,4 C 47 % 1004 hPa 0,0 l/m 2,9 m/s (2 Bft) W-NW67.5 300 0 min 19,8 klux 8,7 C 19,0 C
12.06.2012 18:40 20,3 C 21,7 C 10,4 C 47 % 1004 hPa 0,0 l/m 1,8 m/s (2 Bft) NW45 305 0 min 15,6 klux 8,6 C 20,3 C
12.06.2012 18:45 20,0 C 21,3 C 10,4 C 47 % 1004 hPa 0,0 l/m 0,4 m/s (1 Bft) NW45 315 0 min 12,8 klux 8,3 C 20,0 C
12.06.2012 18:50 19,7 C 21,2 C 10,4 C 48 % 1005 hPa 0,0 l/m 2,8 m/s (2 Bft) NW45 315 0 min 16,0 klux 8,4 C 18,3 C
12.06.2012 18:55 19,8 C 21,1 C 10,4 C 48 % 1005 hPa 0,0 l/m 0,4 m/s (1 Bft) W22.5 270 0 min 16,0 klux 8,5 C 19,8 C
12.06.2012 19:00 20,2 C 21,0 C 10,4 C 48 % 1005 hPa 0,0 l/m 0,0 m/s (0 Bft) W-NW45 295 0 min 15,8 klux 8,8 C 20,2 C
12.06.2012 19:05 20,3 C 20,9 C 10,4 C 48 % 1005 hPa 0,0 l/m 2,6 m/s (2 Bft) W-NW45 290 0 min 17,0 klux 8,9 C 19,2 C
12.06.2012 19:10 20,5 C 20,9 C 10,4 C 48 % 1005 hPa 0,0 l/m 0,4 m/s (1 Bft) W-NW45 295 0 min 17,2 klux 9,1 C 20,5 C
12.06.2012 19:15 20,6 C 20,9 C 10,4 C 48 % 1005 hPa 0,0 l/m 0,0 m/s (0 Bft) W-NW22.5 295 0 min 16,8 klux 9,2 C 20,6 C
12.06.2012 19:20 20,1 C 20,7 C 10,4 C 48 % 1005 hPa 0,0 l/m 2,4 m/s (2 Bft) NW45 315 0 min 14,6 klux 8,7 C 19,3 C
12.06.2012 19:25 20,1 C 20,7 C 10,4 C 48 % 1005 hPa 0,0 l/m 0,0 m/s (0 Bft) W-NW22.5 285 0 min 17,5 klux 8,7 C 20,1 C
12.06.2012 19:30 20,7 C 20,8 C 10,4 C 49 % 1005 hPa 0,0 l/m 0,0 m/s (0 Bft) W45 280 0 min 17,5 klux 9,6 C 20,7 C
12.06.2012 19:35 20,8 C 20,8 C 10,4 C 47 % 1005 hPa 0,0 l/m 2,4 m/s (2 Bft) W-NW45 300 0 min 16,6 klux 9,1 C 20,0 C
12.06.2012 19:40 20,6 C 20,7 C 10,4 C 47 % 1005 hPa 0,0 l/m 3,2 m/s (2 Bft) N-NW22.5 330 0 min 15,2 klux 8,9 C 18,9 C
12.06.2012 19:45 20,2 C 20,5 C 10,4 C 47 % 1005 hPa 0,0 l/m 2,7 m/s (2 Bft) NW67.5 320 0 min 14,0 klux 8,5 C 19,0 C
12.06.2012 19:50 19,9 C 20,3 C 10,4 C 47 % 1005 hPa 0,0 l/m 3,1 m/s (2 Bft) NW45 310 0 min 13,2 klux 8,3 C 18,2 C
12.06.2012 19:55 19,9 C 20,3 C 10,4 C 47 % 1005 hPa 0,0 l/m 1,7 m/s (2 Bft) W-NW45 285 0 min 11,5 klux 8,3 C 19,9 C
12.06.2012 20:00 19,7 C 20,1 C 10,4 C 47 % 1005 hPa 0,0 l/m 1,6 m/s (2 Bft) W-NW45 300 0 min 10,0 klux 8,1 C 19,7 C
12.06.2012 20:05 19,3 C 19,7 C 10,4 C 47 % 1005 hPa 0,0 l/m 2,1 m/s (2 Bft) W67.5 275 0 min 9,2 klux 7,7 C 18,9 C
12.06.2012 20:10 19,3 C 19,5 C 10,4 C 47 % 1005 hPa 0,0 l/m 1,1 m/s (1 Bft) W45 280 0 min 7,96 klux 7,7 C 19,3 C
12.06.2012 20:15 18,8 C 19,4 C 10,4 C 48 % 1005 hPa 0,0 l/m 0,2 m/s (0 Bft) W22.5 270 0 min 6,47 klux 7,6 C 18,8 C
12.06.2012 20:20 18,4 C 19,2 C 10,4 C 50 % 1005 hPa 0,0 l/m 1,9 m/s (2 Bft) W-NW45 295 0 min 5,04 klux 7,8 C 18,2 C
12.06.2012 20:25 17,9 C 18,9 C 10,4 C 56 % 1005 hPa 0,0 l/m 4,2 m/s (3 Bft) NW45 315 0 min 3,85 klux 9,0 C 14,7 C
12.06.2012 20:30 17,6 C 18,8 C 10,4 C 57 % 1005 hPa 0,0 l/m 4,0 m/s (3 Bft) NW45 320 0 min 3,98 klux 9,0 C 14,5 C
12.06.2012 20:35 17,3 C 18,4 C 10,4 C 59 % 1005 hPa 0,0 l/m 4,0 m/s (3 Bft) NW45 320 0 min 4,15 klux 9,2 C 14,1 C
12.06.2012 20:40 17,0 C 18,1 C 10,4 C 60 % 1006 hPa 0,0 l/m 4,9 m/s (3 Bft) NW45 320 0 min 3,90 klux 9,2 C 12,9 C
12.06.2012 20:44 16,9 C 17,8 C 10,4 C 61 % 1006 hPa 0,0 l/m 5,4 m/s (3 Bft) N-NW22.5 335 0 min 3,52 klux 9,3 C 12,3 C
12.06.2012 20:49 16,6 C 17,5 C 10,4 C 62 % 1006 hPa 0,0 l/m 6,8 m/s (4 Bft) N-NW45 330 0 min 3,11 klux 9,3 C 10,9 C
12.06.2012 20:54 16,3 C 17,4 C 10,4 C 62 % 1006 hPa 0,0 l/m 4,9 m/s (3 Bft) N-NW22.5 340 0 min 2,80 klux 9,0 C 12,0 C
12.06.2012 20:59 16,2 C 17,2 C 10,4 C 63 % 1006 hPa 0,0 l/m 4,3 m/s (3 Bft) N-NW22.5 330 0 min 2,62 klux 9,1 C 12,5 C
12.06.2012 21:04 16,1 C 17,1 C 10,4 C 63 % 1006 hPa 0,0 l/m 3,2 m/s (2 Bft) NW45 325 0 min 2,26 klux 9,1 C 13,7 C
12.06.2012 21:09 15,8 C 16,9 C 10,4 C 63 % 1006 hPa 0,0 l/m 4,9 m/s (3 Bft) N-NW22.5 335 0 min 1,72 klux 8,8 C 11,3 C
12.06.2012 21:14 15,7 C 16,7 C 10,4 C 64 % 1006 hPa 0,0 l/m 3,7 m/s (3 Bft) NW45 305 0 min 1,28 klux 8,9 C 12,6 C
12.06.2012 21:19 15,6 C 16,6 C 10,4 C 64 % 1006 hPa 0,0 l/m 3,4 m/s (2 Bft) NW45 320 0 min 871 lux 8,8 C 12,9 C
12.06.2012 21:24 15,5 C 16,5 C 10,4 C 63 % 1006 hPa 0,0 l/m 1,2 m/s (1 Bft) W45 280 0 min 549 lux 8,5 C 15,5 C
12.06.2012 21:29 15,3 C 16,3 C 10,4 C 63 % 1006 hPa 0,0 l/m 0,1 m/s (0 Bft) NW45 325 0 min 342 lux 8,3 C 15,3 C
12.06.2012 21:34 15,2 C 16,1 C 10,4 C 64 % 1006 hPa 0,0 l/m 3,4 m/s (2 Bft) N-NW45 330 0 min 221 lux 8,4 C 12,5 C
12.06.2012 21:40 15,1 C 16,1 C 10,4 C 66 % 1006 hPa 0,0 l/m 4,0 m/s (3 Bft) N-NW22.5 340 0 min 132 lux 8,8 C 11,5 C
12.06.2012 21:45 15,0 C 16,0 C 10,4 C 68 % 1006 hPa 0,0 l/m 0,5 m/s (1 Bft) NW45 310 0 min 81 lux 9,1 C 15,0 C
12.06.2012 21:50 15,0 C 15,9 C 10,4 C 68 % 1006 hPa 0,0 l/m 0,3 m/s (0 Bft) W-NW45 295 0 min 62 lux 9,1 C 15,0 C
12.06.2012 21:55 15,0 C 15,8 C 10,4 C 68 % 1007 hPa 0,0 l/m 2,5 m/s (2 Bft) W-NW45 295 0 min 35 lux 9,1 C 13,6 C
12.06.2012 22:00 15,0 C 15,8 C 10,4 C 69 % 1007 hPa 0,0 l/m 2,7 m/s (2 Bft) NW45 305 0 min 24 lux 9,4 C 13,3 C
12.06.2012 22:05 15,0 C 15,8 C 10,4 C 69 % 1007 hPa 0,0 l/m 0,0 m/s (0 Bft) W-NW22.5 295 0 min 14 lux 9,4 C 15,0 C
12.06.2012 22:10 15,0 C 15,7 C 10,4 C 67 % 1007 hPa 0,0 l/m 0,0 m/s (0 Bft) W 270 0 min 8 lux 8,9 C 15,0 C
12.06.2012 22:15 15,0 C 15,7 C 10,4 C 67 % 1007 hPa 0,0 l/m 0,0 m/s (0 Bft) W-NW45 290 0 min 3 lux 8,9 C 15,0 C
12.06.2012 22:20 14,9 C 15,6 C 10,4 C 69 % 1007 hPa 0,0 l/m 0,4 m/s (1 Bft) W-NW45 300 0 min 0 lux 9,3 C 14,9 C
12.06.2012 22:25 14,9 C 15,6 C 10,4 C 69 % 1007 hPa 0,0 l/m 0,0 m/s (0 Bft) W-NW45 295 0 min 0 lux 9,3 C 14,9 C
12.06.2012 22:30 14,8 C 15,5 C 10,4 C 70 % 1007 hPa 0,0 l/m 0,1 m/s (0 Bft) W-NW45 300 0 min 0 lux 9,4 C 14,8 C
12.06.2012 22:35 14,8 C 15,5 C 10,4 C 70 % 1007 hPa 0,0 l/m 2,7 m/s (2 Bft) W-NW45 300 0 min 0 lux 9,4 C 13,1 C
12.06.2012 22:40 14,8 C 15,4 C 10,4 C 70 % 1007 hPa 0,0 l/m 0,0 m/s (0 Bft) W-NW45 290 0 min 0 lux 9,4 C 14,8 C
12.06.2012 22:45 14,7 C 15,3 C 10,4 C 69 % 1007 hPa 0,0 l/m 0,0 m/s (0 Bft) W22.5 270 0 min 0 lux 9,1 C 14,7 C
12.06.2012 22:50 14,6 C 15,3 C 10,4 C 68 % 1007 hPa 0,0 l/m 0,0 m/s (0 Bft) W22.5 275 0 min 0 lux 8,8 C 14,6 C
12.06.2012 22:55 14,6 C 15,1 C 10,4 C 68 % 1007 hPa 0,0 l/m 0,0 m/s (0 Bft) W22.5 275 0 min 0 lux 8,8 C 14,6 C
12.06.2012 23:00 14,5 C 15,1 C 10,4 C 69 % 1007 hPa 0,0 l/m 0,3 m/s (1 Bft) W-NW45 290 0 min 0 lux 8,9 C 14,5 C
12.06.2012 23:05 14,4 C 15,0 C 10,4 C 69 % 1007 hPa 0,0 l/m 0,1 m/s (0 Bft) W45 270 0 min 0 lux 8,8 C 14,4 C
12.06.2012 23:10 14,2 C 14,9 C 10,4 C 69 % 1007 hPa 0,0 l/m 0,0 m/s (0 Bft) W22.5 280 0 min 0 lux 8,6 C 14,2 C
12.06.2012 23:15 14,1 C 14,8 C 10,4 C 69 % 1007 hPa 0,0 l/m 0,0 m/s (0 Bft) SW67.5 220 0 min 0 lux 8,5 C 14,1 C
12.06.2012 23:20 14,0 C 14,7 C 10,4 C 69 % 1007 hPa 0,0 l/m 0,0 m/s (0 Bft) S 170 0 min 0 lux 8,4 C 14,0 C
12.06.2012 23:25 14,0 C 14,6 C 10,4 C 68 % 1007 hPa 0,0 l/m 0,0 m/s (0 Bft) S 170 0 min 0 lux 8,2 C 14,0 C
12.06.2012 23:30 14,0 C 14,5 C 10,4 C 68 % 1007 hPa 0,0 l/m 0,0 m/s (0 Bft) S 170 0 min 0 lux 8,2 C 14,0 C
12.06.2012 23:35 13,9 C 14,5 C 10,4 C 68 % 1007 hPa 0,0 l/m 0,0 m/s (0 Bft) S 170 0 min 0 lux 8,1 C 13,9 C
12.06.2012 23:40 13,8 C 14,5 C 10,4 C 68 % 1007 hPa 0,0 l/m 0,0 m/s (0 Bft) S-SO 165 0 min 0 lux 8,0 C 13,8 C
12.06.2012 23:45 13,9 C 14,5 C 10,4 C 69 % 1007 hPa 0,0 l/m 0,0 m/s (0 Bft) S-SO 165 0 min 0 lux 8,3 C 13,9 C
12.06.2012 23:50 13,8 C 14,4 C 10,4 C 68 % 1007 hPa 0,0 l/m 0,0 m/s (0 Bft) S-SO 165 0 min 0 lux 8,0 C 13,8 C
12.06.2012 23:55 13,8 C 14,4 C 10,4 C 68 % 1007 hPa 0,0 l/m 0,0 m/s (0 Bft) S 170 0 min 0 lux 8,0 C 13,8 C
_ Min-Zeit 00:24 01:30 00:00 15:15 00:00 - 00:00 - - - - 00:09 00:24
Minimum _ 10,6 C 11,1 C 10,4 C 35 % 1003 hPa - 0,0 m/s (0 Bft) - - - - 6,2 C 10,6 C
_ Max-Zeit 14:19 15:25 00:00 05:34 21:55 00:00 20:49 - - 08:40 14:14 10:00 14:19
Maximum _ 24,8 C 27,5 C 10,4 C 78 % 1007 hPa 0,0 l/m 6,8 m/s
N-NW (4 Bft)
- - 5 min 131 klux 14,2 C 24,8 C
Durchschnitt _ 16,6 C 17,0 C 10,4 C 62 % 1004 hPa #0,0 l/m 1,2 m/s (1 Bft) NW - #2:45 h 23,1 klux 8,8 C 15,9 C